Wind_Speed
10 10 11 11 10 10 10 9 7 6 6 6 6 6 8 10 12 13 15 15 16 15 15 16 17 18 19 20 20 21 21 22 22 22 22 22 23 23 24 24 24 24 24 25 25 26 26 26 27 28 28 29 29 29 30 30 31 31 31 31 30 30 30 30 29 29 30 30 31 32 32 33 34 35 35 35 35 35 34 34 34 34 34 35 36
12 11 12 13 13 12 12 12 10 8 6 5 5 5 7 9 10 12 13 14 15 16 15 15 15 16 17 18 19 19 20 20 21 21 21 21 21 21 22 22 22 23 23 23 23 24 25 25 26 27 27 28 29 30 30 31 31 32 33 33 34 34 33 34 34 34 34 34 35 36 36 36 36 36 36 35 35 34 34 34 34 35 35 36 37
16 14 14 15 16 16 15 14 13 11 8 6 4 3 4 7 8 9 11 12 13 15 15 15 15 15 16 16 17 18 19 19 19 19 20 20 20 20 20 20 20 20 21 21 21 22 23 23 24 25 26 27 28 29 30 30 31 32 33 34 35 35 35 35 35 35 35 36 36 36 36 36 35 35 35 35 35 34 34 34 34 34 35 35 35
20 18 17 17 19 20 19 16 15 14 11 9 5 2 2 5 6 7 8 9 10 12 14 15 15 15 14 14 15 15 16 17 17 18 18 18 18 18 18 18 18 18 18 19 19 20 20 21 22 23 24 25 26 27 28 29 30 31 32 33 34 34 35 35 35 34 34 34 34 34 34 34 34 34 34 34 34 34 34 33 33 33 33 33 33
22 21 21 21 21 22 22 20 18 18 16 12 7 3 1 3 5 5 6 8 8 9 11 12 12 14 13 13 13 13 13 14 14 15 16 16 15 15 15 15 15 15 16 16 16 17 17 18 19 20 21 22 23 24 26 27 28 28 29 31 32 32 32 33 32 32 32 31 31 31 31 32 32 32 32 32 31 31 31 31 31 31 31 30 30
26 24 24 24 24 25 25 24 22 20 20 17 12 7 4 4 5 4 4 5 7 8 9 9 9 10 11 11 11 11 11 11 11 12 12 13 13 13 13 12 12 12 13 13 14 14 15 15 16 16 17 18 19 21 22 24 24 25 26 27 28 29 29 29 29 28 28 28 28 28 28 28 28 28 29 29 28 28 27 27 27 28 27 26 25
31 30 29 28 27 27 27 27 26 23 21 20 16 11 8 7 6 4 3 3 5 8 9 9 8 7 8 10 10 10 10 10 10 9 9 9 10 10 10 10 10 10 10 11 12 12 12 13 13 14 14 15 16 16 18 19 20 21 22 23 23 24 24 24 24 24 23 23 23 24 24 24 24 24 25 25 25 24 24 24 23 23 22 22 21
33 34 34 32 29 28 27 26 27 26 24 21 17 13 11 10 9 8 5 5 6 8 10 10 9 8 7 8 8 9 9 9 9 8 8 8 7 7 8 8 8 8 8 9 10 10 11 11 11 11 11 12 12 13 13 14 15 16 17 17 18 19 19 19 19 19 19 19 19 19 19 20 20 20 20 20 20 20 20 20 20 19 18 17 17
36 36 37 35 32 30 29 27 26 26 25 23 18 15 14 14 13 11 9 8 9 10 11 11 11 10 9 7 6 7 8 9 8 7 7 8 8 7 6 6 7 7 8 8 8 8 9 9 9 9 9 9 9 9 9 9 10 11 11 12 12 14 14 14 15 15 15 15 15 15 15 15 16 16 16 15 15 15 15 16 16 15 14 13 12
38 38 38 36 34 34 33 32 29 26 26 26 24 20 19 18 16 14 13 12 13 14 14 13 12 12 10 8 5 6 7 9 10 9 8 8 9 8 7 6 5 5 6 6 6 6 6 6 7 7 6 6 5 5 5 6 6 6 6 7 7 8 9 9 10 10 10 10 10 11 11 12 12 12 12 11 11 11 11 11 12 11 10 9 8
39 38 38 38 37 37 36 34 31 28 26 27 27 26 24 22 20 18 17 16 16 16 15 14 14 14 12 9 6 5 7 10 11 12 11 10 10 10 9 8 7 6 5 5 5 5 5 4 5 5 5 5 4 3 3 3 2 2 2 2 2 3 3 4 5 5 6 6 6 6 7 8 8 8 8 8 8 8 8 8 8 8 8 6 4
39 38 38 38 37 37 38 36 31 29 28 28 29 29 29 27 24 22 20 19 20 20 18 17 18 19 17 14 11 8 8 10 12 13 13 12 12 12 11 9 8 7 7 6 5 5 5 5 4 5 5 6 6 5 5 4 4 3 3 2 2 2 2 2 2 3 4 4 4 4 4 5 5 5 5 5 6 6 6 7 7 6 6 6 3
38 37 36 35 34 35 37 36 32 30 32 33 32 31 31 31 28 25 24 23 22 23 21 20 22 23 23 21 18 16 14 13 14 15 15 15 15 14 13 12 10 9 8 8 7 7 6 6 6 6 6 7 8 8 8 8 7 7 6 6 6 6 6 5 5 5 5 5 5 5 5 5 6 6 6 7 7 8 8 9 9 8 8 8 7
39 36 32 32 33 33 35 36 34 32 33 36 37 34 32 33 31 28 27 27 26 26 24 23 24 26 26 26 25 24 22 20 18 18 18 18 17 16 15 13 11 10 9 9 8 8 8 8 8 8 9 9 9 9 10 10 10 10 10 10 9 9 9 9 9 8 8 7 7 7 7 7 8 9 9 10 10 11 11 11 12 11 11 11 11
44 41 36 37 39 39 38 38 36 34 32 35 39 38 37 36 36 33 31 31 31 29 27 26 26 27 28 29 30 30 30 27 24 22 21 20 19 19 18 16 13 12 11 11 11 11 11 11 11 11 11 11 11 11 11 11 11 12 12 12 12 12 12 13 13 13 12 12 11 11 11 11 11 12 13 14 15 14 15 15 15 14 14 15 15
53 53 50 48 47 45 40 37 37 37 36 38 41 42 42 42 41 39 36 34 34 32 31 30 29 30 31 32 34 35 33 30 28 27 26 24 22 20 20 19 17 15 14 13 14 15 15 15 14 14 14 14 13 13 14 14 14 14 14 14 15 14 14 15 17 17 16 16 16 16 16 16 16 16 16 17 18 18 17 18 18 18 17 17 18
57 59 57 56 54 51 47 42 41 42 42 43 44 44 45 44 43 42 40 38 36 34 32 31 31 32 33 33 34 35 33 29 28 29 30 29 26 23 21 21 20 19 17 16 16 17 17 18 18 17 17 16 15 15 16 17 17 17 17 17 17 16 15 16 19 20 20 19 19 19 18 18 17 16 15 15 17 17 18 19 20 21 21 21 21
60 58 58 58 58 57 55 50 48 47 47 47 47 47 47 45 45 45 44 41 40 36 32 30 31 32 32 32 34 36 33 28 27 29 31 32 30 26 23 21 22 22 22 20 20 19 20 20 19 19 19 19 18 18 18 20 19 19 18 19 19 17 15 16 20 22 21 21 20 19 18 18 18 17 16 15 16 17 17 17 19 21 22 22 23
65 62 60 60 60 61 60 57 55 53 53 53 53 52 50 48 48 49 47 45 43 39 36 34 32 31 31 33 38 39 34 29 29 32 33 33 33 31 27 23 22 23 24 25 25 24 23 22 21 21 21 21 21 21 21 22 22 21 20 20 20 17 16 18 21 22 22 21 21 20 20 19 19 19 18 17 17 17 18 18 18 19 20 20 21
71 69 65 63 64 64 63 61 59 56 55 56 57 57 54 51 50 51 49 47 46 43 40 38 35 35 36 39 42 42 36 32 33 34 35 34 34 34 31 28 25 24 25 27 29 30 29 27 25 24 24 24 24 24 24 24 25 26 24 23 21 19 18 20 23 23 23 23 22 22 23 22 22 21 21 20 19 19 20 20 19 19 19 19 20
74 72 70 68 68 67 64 60 58 57 56 56 57 59 58 55 54 53 52 51 50 48 45 43 42 43 43 43 43 42 39 37 36 35 35 34 35 36 36 34 31 28 26 27 30 32 33 33 31 29 28 28 28 28 27 27 28 29 28 27 25 22 21 22 24 24 24 25 24 25 26 26 24 23 23 23 22 22 23 23 22 20 20 21 21
78 75 72 71 70 68 65 61 58 58 59 59 59 61 61 59 57 57 57 56 56 54 52 50 50 49 47 45 44 43 42 40 38 36 36 34 34 37 38 39 38 33 29 29 31 33 35 35 35 34 33 32 31 31 31 30 30 30 31 30 28 27 25 25 26 26 26 26 27 28 28 27 26 25 25 24 24 24 26 26 25 24 23 22 22
84 82 79 78 75 73 71 69 66 64 64 63 62 63 64 63 61 60 61 61 60 60 59 58 57 55 52 49 48 47 45 42 40 38 37 35 35 37 38 40 41 38 34 35 36 36 37 37 37 37 36 36 36 35 34 33 32 32 33 32 32 31 29 29 28 28 28 29 29 30 30 29 28 27 26 26 26 27 28 28 28 28 27 26 25
88 87 86 85 84 83 82 80 78 74 70 68 67 65 66 66 64 63 64 63 64 64 64 65 64 63 61 57 54 53 51 47 44 41 39 36 36 39 41 43 44 43 42 43 44 44 43 42 42 41 41 40 39 39 38 37 36 36 35 35 35 34 33 32 32 31 32 32 32 33 33 32 31 30 29 28 28 29 29 30 30 30 31 31 29
94 93 92 91 90 89 86 84 83 80 76 74 72 70 69 68 67 67 66 66 66 67 68 68 67 66 65 63 60 59 57 54 50 48 46 43 43 45 47 48 49 50 51 53 54 53 52 50 48 47 47 45 44 43 42 41 39 39 38 38 38 37 36 35 35 35 35 36 36 36 36 35 33 32 32 32 31 31 31 31 32 32 33 33 34
103 102 101 100 98 95 90 85 83 82 81 79 78 76 75 74 73 73 71 69 67 67 68 70 71 69 68 67 66 65 64 62 60 58 56 55 54 54 55 56 57 59 61 62 63 62 60 58 55 52 50 49 48 48 47 46 44 42 40 39 39 39 39 38 37 38 38 38 38 39 40 40 38 36 34 34 34 34 33 32 32 33 34 34 36
109 109 109 108 107 105 101 96 90 87 85 84 83 82 81 81 81 82 81 78 75 71 70 71 73 73 73 73 72 72 72 72 72 71 70 69 67 66 66 66 67 68 69 70 70 68 66 64 62 59 56 54 53 53 52 52 50 48 46 45 43 43 42 41 40 40 40 40 41 41 42 42 42 41 39 37 36 36 36 34 33 35 35 34 35
112 112 112 112 112 111 108 105 101 96 91 88 87 87 86 87 87 88 89 88 86 83 79 77 77 77 78 79 80 80 80 80 80 81 81 80 79 77 76 75 75 75 75 75 75 75 73 69 67 65 64 62 60 58 57 56 56 55 54 53 51 49 47 45 43 42 42 42 43 44 45 45 44 44 43 42 41 40 38 36 35 35 36 34 34
116 116 116 115 115 114 112 111 109 105 100 96 94 92 91 91 91 92 92 92 92 91 89 86 84 83 83 84 86 87 88 87 87 87 87 88 87 86 84 82 81 80 80 79 80 81 80 76 71 68 67 66 65 63 61 60 60 59 59 58 56 55 53 51 48 46 45 44 44 46 47 48 48 47 46 46 46 45 43 40 38 37 36 36 35
118 118 118 118 118 117 116 114 113 111 109 106 103 100 98 97 96 96 96 95 95 95 94 92 91 89 88 87 87 88 89 90 91 91 92 92 92 91 89 88 87 86 86 85 85 86 86 85 81 75 70 68 67 66 64 63 62 62 62 62 60 59 58 56 55 53 52 51 50 49 50 50 51 51 51 50 50 50 48 46 44 41 39 38 38
119 119 119 120 120 119 119 117 116 115 115 113 111 109 107 105 104 103 102 101 100 100 100 100 99 98 97 95 94 93 92 92 92 93 93 95 95 94 93 93 92 92 92 91 91 91 91 91 90 86 79 74 71 70 68 67 66 66 66 66 66 65 63 62 61 60 60 60 60 59 58 57 56 55 55 54 53 53 52 51 49 47 44 42 41
118 118 119 120 120 120 120 119 118 117 117 116 116 115 114 113 111 110 110 109 108 107 106 106 106 106 106 105 104 103 102 101 100 98 97 97 97 98 97 97 97 97 97 97 97 97 96 96 95 94 91 87 81 77 74 72 71 70 70 70 70 70 69 68 67 66 66 67 67 67 66 65 64 63 61 59 57 56 55 55 54 52 50 47 45
117 118 118 119 119 119 119 119 119 118 118 118 117 118 118 118 117 116 115 115 115 114 113 112 112 112 112 112 111 111 110 110 110 108 106 104 103 103 102 102 102 102 102 102 102 102 102 100 99 98 97 96 92 88 83 79 77 75 74 74 75 75 75 74 74 73 73 73 73 72 72 71 70 69 68 66 64 61 59 58 58 57 56 54 51
119 119 119 119 119 120 120 120 120 120 119 119 119 119 119 119 120 120 119 119 120 120 120 119 118 118 118 117 117 117 117 116 116 115 114 113 112 110 109 108 108 108 108 108 108 107 106 105 103 102 101 100 99 96 93 89 86 83 80 79 79 79 79 79 78 78 78 78 78 78 77 76 75 74 74 73 70 68 65 63 62 61 60 59 58
122 121 121 121 120 120 120 121 121 121 121 121 121 121 121 121 121 121 121 121 122 123 123 124 124 123 123 122 122 122 122 122 121 121 120 119 118 116 115 114 113 113 113 112 112 111 110 109 108 106 105 104 103 101 100 97 94 91 88 85 83 82 83 83 82 82 82 82 82 82 82 81 80 79 78 77 75 73 70 68 67 65 64 63 63
124 124 124 124 123 123 123 122 122 122 122 122 122 122 123 123 123 123 123 123 123 123 124 125 125 125 125 125 125 125 126 126 125 125 125 124 124 122 121 119 118 117 117 116 115 114 113 112 111 110 109 107 106 105 104 102 101 98 96 92 89 87 86 86 86 86 85 85 85 85 85 84 84 83 81 79 78 76 74 72 71 70 68 67 67
126 126 126 126 126 126 126 125 125 124 124 123 123 124 124 124 124 124 125 125 125 125 125 126 126 126 126 125 125 126 127 127 127 127 128 128 127 127 126 126 125 123 122 120 119 117 116 114 113 112 111 110 109 108 107 106 105 103 102 100 97 94 92 90 89 89 89 89 89 88 88 87 87 86 84 82 81 79 78 76 76 74 73 72 71
128 128 128 128 128 128 128 128 128 127 127 127 126 126 126 126 126 126 126 126 126 127 127 127 128 128 127 127 126 126 127 128 128 129 129 128 128 128 128 128 128 128 127 126 124 122 120 119 118 116 115 114 113 112 111 110 108 107 105 104 103 101 99 96 95 93 93 92 92 92 91 90 90 89 88 86 84 83 81 80 80 80 78 77 76
129 129 129 130 130 130 130 130 130 130 130 130 130 129 129 129 128 128 128 128 128 128 129 129 129 129 129 129 128 128 128 128 128 129 129 129 129 129 129 129 129 129 129 129 128 126 125 123 122 121 120 119 117 115 113 112 111 110 109 108 107 106 104 102 100 98 96 95 95 95 94 94 93 92 91 89 88 87 85 84 84 84 83 82 81
129 129 130 130 130 131 132 132 132 133 133 133 132 132 132 132 132 131 131 131 131 131 131 131 131 131 131 130 130 130 129 129 129 129 129 130 130 130 130 130 130 130 130 129 129 128 127 126 124 123 121 120 119 117 115 113 112 112 111 110 109 108 107 106 104 102 100 99 97 97 96 96 96 95 94 93 91 90 89 88 87 87 87 86 86
130 130 130 131 131 132 132 133 133 134 134 135 135 135 135 134 134 134 134 134 134 134 134 134 134 133 133 133 133 132 132 131 130 130 130 130 130 130 131 131 131 131 130 130 130 129 128 127 126 125 124 122 120 118 117 115 114 113 112 112 111 110 109 108 107 105 103 101 100 99 98 98 97 97 96 95 94 93 92 92 91 90 90 90 90
132 132 132 132 132 133 133 133 134 134 135 135 135 136 136 136 136 136 137 137 137 137 137 137 137 136 137 136 136 136 135 135 134 133 133 132 132 131 131 131 131 131 131 131 131 130 130 129 129 128 127 126 124 122 120 118 117 115 115 114 113 112 111 110 109 108 106 105 103 102 100 99 98 97 97 97 97 95 94 93 93 92 92 92 93
133 133 134 134 134 134 134 135 135 135 135 135 136 136 136 137 137 137 138 138 139 139 139 139 139 139 139 139 139 139 139 138 138 137 136 135 135 134 134 134 133 133 132 132 132 132 131 131 131 130 130 129 128 127 125 123 121 119 117 116 116 115 114 113 112 111 110 108 107 105 103 101 100 99 98 98 97 96 95 94 94 93 93 93 93
133 133 134 134 135 135 135 136 136 136 137 137 137 137 137 137 137 138 138 139 139 139 140 140 140 140 140 141 141 141 141 141 141 140 140 139 138 138 137 137 137 136 135 135 134 133 133 133 132 132 131 131 130 129 128 127 126 124 122 120 119 118 117 116 115 114 113 112 111 109 107 105 104 102 101 99 98 97 96 95 94 94 93 93 93
131 132 132 133 134 134 135 136 136 137 137 138 138 138 138 138 139 139 139 139 140 140 140 140 141 141 141 141 142 142 142 142 141 141 141 140 140 140 140 140 139 139 139 138 137 137 136 135 135 134 133 133 132 131 130 129 129 128 126 125 123 122 121 119 118 117 116 115 114 112 111 109 108 106 105 103 101 99 98 97 96 95 94 94 94
129 129 130 130 131 132 133 133 134 135 136 137 137 138 139 139 139 140 140 141 141 141 141 142 142 142 142 143 143 143 143 142 142 141 141 140 140 140 140 140 140 140 140 140 140 139 139 139 138 137 136 135 134 134 133 132 131 130 129 128 127 126 125 124 122 121 120 118 117 115 114 113 112 110 108 107 105 103 101 100 99 98 97 97 96
128 129 129 129 129 129 129 130 131 132 133 133 134 135 136 137 138 139 140 140 141 142 142 143 143 144 144 144 144 144 144 144 144 143 142 142 141 140 140 139 139 139 139 139 139 139 139 139 139 139 138 138 137 136 136 135 134 133 132 131 130 129 128 127 126 125 124 122 121 119 118 117 116 114 112 110 108 106 104 103 102 101 100 100 99
126 127 127 127 128 128 128 128 129 129 130 130 131 132 133 134 135 136 137 138 139 139 140 141 142 143 144 144 145 145 145 145 145 145 144 144 143 143 142 141 140 139 139 139 138 138 138 138 138 138 138 138 137 137 137 137 137 136 135 134 134 133 132 131 130 129 127 126 125 123 122 121 120 118 117 115 112 110 108 106 105 104 103 102 101
119 120 122 123 124 124 125 126 127 127 128 128 129 129 130 131 132 133 133 134 135 136 137 138 139 140 141 142 142 143 143 144 144 144 144 144 143 143 143 142 142 141 141 140 139 139 138 137 137 137 136 136 136 136 136 136 137 137 137 137 136 136 135 134 133 132 131 130 129 128 126 125 123 122 121 120 118 115 113 110 109 107 105 104 103
112 113 115 116 117 118 119 120 122 123 124 125 126 127 127 128 129 130 130 131 132 133 133 134 135 136 136 137 138 139 140 140 140 141 141 141 141 141 141 141 141 141 140 140 139 139 138 138 138 137 137 136 136 135 135 135 135 136 136 137 137 137 137 137 136 136 135 134 133 132 130 129 127 126 124 123 122 120 118 117 114 112 110 108 106
105 106 107 108 110 111 113 114 116 117 119 120 121 122 123 124 125 126 127 128 129 130 130 131 131 132 133 133 134 134 135 135 135 136 136 136 137 137 137 137 137 137 137 137 137 137 137 137 137 138 138 137 137 136 136 135 135 135 135 136 136 136 137 137 137 138 138 137 136 135 134 132 131 130 128 127 125 124 122 121 120 118 116 114 112
Wind_Direction
262 277 285 290 293 294 295 296 300 312 323 329 347 15 25 29 31 33 35 37 39 42 46 50 53 55 57 58 60 61 61 61 60 59 58 58 59 60 61 61 61 61 61 62 63 65 66 67 68 69 69 68 68 68 67 68 68 68 68 69 69 71 72 73 75 76 78 80 82 83 85 86 87 88 88 88 89 90 90 90 90 91 92 93 95
253 263 278 283 282 279 277 279 279 278 282 291 310 353 19 22 22 23 24 26 29 33 38 45 51 53 54 55 56 57 59 60 59 58 57 56 56 57 58 60 61 60 60 60 60 61 61 62 63 65 66 67 67 67 67 67 67 67 67 69 70 71 72 74 76 77 79 82 84 87 89 90 91 92 92 93 93 94 95 95 96 97 98 99 100
257 256 264 274 278 276 271 269 268 263 254 253 266 317 9 15 19 19 17 16 17 19 23 31 40 49 53 54 53 52 52 54 56 56 55 55 54 54 54 56 58 59 59 58 58 59 60 60 60 61 62 64 64 64 65 65 66 67 68 69 70 71 73 76 78 79 82 85 88 91 93 94 95 96 97 98 98 98 98 98 99 100 101 101 101
263 262 263 267 272 276 276 272 268 264 256 244 237 252 1 8 12 15 15 14 13 10 11 15 22 34 45 52 56 56 52 49 49 51 52 53 54 52 52 51 52 55 57 58 58 57 58 59 61 62 62 63 64 65 65 65 66 68 70 72 73 75 77 81 83 85 87 90 92 95 97 99 100 100 101 101 102 102 100 99 99 100 100 100 100
258 263 265 267 270 273 275 274 271 269 266 260 252 256 332 359 3 9 15 17 15 10 7 5 8 16 26 39 50 57 60 56 51 47 46 48 50 51 51 50 48 47 50 54 55 55 56 57 59 62 63 64 66 67 68 69 70 71 73 76 79 82 85 89 92 93 94 95 96 99 101 102 103 104 103 103 102 102 101 101 100 99 99 99 98
251 256 261 267 272 274 273 270 267 266 265 262 259 266 291 320 343 357 10 12 5 2 1 359 1 3 8 19 33 44 53 58 59 54 48 42 40 43 46 49 48 43 41 43 47 50 52 53 54 57 60 63 65 67 71 73 75 77 79 80 83 87 91 95 97 98 98 99 101 102 103 104 105 105 106 104 101 99 98 99 100 101 101 98 94
249 252 258 263 270 274 274 270 266 262 261 258 254 255 269 284 299 309 317 330 337 338 339 344 353 355 355 2 15 26 35 43 50 53 54 49 42 35 34 37 41 42 40 35 36 39 42 44 46 49 52 56 59 63 68 74 77 80 83 86 87 88 92 96 99 100 101 102 104 105 106 107 106 107 108 107 102 98 98 98 99 100 99 95 92
247 250 254 258 264 269 270 268 265 262 259 256 252 247 252 262 268 271 269 265 286 307 313 320 331 339 343 350 0 8 13 20 28 34 39 42 44 41 33 28 28 32 35 34 30 29 30 32 35 36 39 42 47 52 58 67 74 78 83 89 91 92 93 96 100 103 104 105 107 109 110 110 110 110 111 110 107 105 104 102 101 100 99 97 93
246 247 251 255 260 263 263 263 262 261 258 254 249 244 244 249 254 256 256 254 263 279 289 298 309 319 325 335 350 357 354 353 358 8 19 23 26 29 31 29 25 22 23 25 27 25 23 22 24 25 27 28 33 38 43 51 61 70 77 84 90 95 97 99 103 107 110 112 114 116 117 117 117 118 117 115 114 114 116 115 111 106 103 100 95
246 247 249 252 256 260 261 260 258 257 256 251 245 241 241 244 249 251 251 249 255 265 273 280 291 303 311 319 336 350 348 342 338 339 348 1 9 12 12 13 15 15 15 13 14 17 16 13 11 9 11 12 14 20 27 34 44 54 64 69 77 86 93 98 104 109 114 118 121 125 127 129 130 131 129 128 127 126 129 132 131 125 116 104 94
249 249 250 251 253 254 256 256 255 253 253 250 244 240 240 241 245 250 252 252 255 261 270 276 281 290 300 307 319 335 339 337 332 329 328 335 344 351 352 352 351 350 356 358 356 359 1 357 353 346 342 340 334 335 337 347 4 22 42 51 55 66 82 97 108 115 122 126 130 135 141 144 147 148 149 148 150 150 151 153 152 150 144 129 101
249 248 247 249 252 253 250 249 252 254 252 250 246 241 238 238 240 244 248 252 257 262 269 275 278 282 287 292 299 306 315 322 322 320 319 320 324 329 332 333 332 327 327 329 329 334 338 336 329 318 311 309 305 298 292 286 280 276 271 272 275 272 253 225 195 173 167 166 166 167 171 176 181 186 190 193 194 193 193 191 189 185 183 180 175
243 242 243 247 253 253 249 246 248 253 254 252 250 245 238 234 235 238 242 246 251 257 261 268 273 277 280 284 289 291 292 299 305 308 310 311 312 314 315 316 316 312 310 312 311 311 313 314 310 302 292 288 289 290 288 284 278 274 269 267 268 268 263 253 244 237 226 219 218 219 220 222 226 231 235 238 237 236 233 229 225 223 223 221 220
237 238 238 241 243 243 242 242 244 247 250 252 251 247 241 236 234 237 241 242 244 247 251 255 261 268 272 276 281 285 285 284 289 297 301 303 303 301 300 302 303 301 297 296 297 297 297 297 294 292 287 282 280 281 283 284 284 282 279 276 273 272 271 267 261 258 254 250 249 249 249 250 251 252 254 255 254 253 251 249 245 243 244 245 243
230 230 228 229 235 238 239 241 240 238 241 246 246 243 241 240 239 238 239 240 243 245 247 249 253 259 263 268 274 280 281 278 278 283 290 294 293 289 288 289 290 289 286 286 287 290 293 295 294 291 288 284 282 280 278 276 275 275 276 274 272 270 270 269 266 263 261 261 263 263 263 266 270 270 268 264 259 257 257 257 254 253 254 256 257
227 228 228 228 232 235 234 232 231 229 232 238 240 239 239 240 240 238 236 237 241 244 246 248 251 255 260 265 271 275 275 272 271 273 277 282 285 282 279 278 278 277 275 276 280 284 289 292 293 292 291 290 288 284 280 276 272 269 267 266 266 266 267 268 267 265 263 263 266 269 272 275 277 277 274 269 264 260 259 261 259 254 254 258 261
229 231 231 228 226 226 225 224 226 228 231 235 238 237 238 240 240 238 236 235 236 240 244 248 250 254 259 264 267 268 267 266 267 268 269 272 276 277 275 272 271 272 271 271 272 275 280 285 288 289 291 292 291 288 284 281 277 274 271 268 268 268 269 271 271 270 269 270 272 275 278 280 281 279 276 273 271 267 265 265 265 260 257 258 262
229 227 224 222 221 222 223 225 228 231 234 237 240 240 240 240 239 238 237 236 236 238 239 241 243 248 256 260 261 261 261 261 264 266 266 266 268 271 273 271 269 270 270 271 272 272 274 279 284 286 287 288 288 287 286 285 285 285 282 279 276 274 271 269 271 272 274 276 277 278 279 280 281 280 278 276 276 275 271 269 269 269 266 265 267
227 223 218 217 218 219 222 226 230 234 237 240 243 244 244 243 241 239 237 237 238 238 236 234 237 244 250 252 254 256 257 256 259 264 265 264 264 265 269 272 272 272 271 270 270 272 274 277 280 283 284 284 283 282 283 284 287 289 288 286 286 283 276 269 270 272 274 274 274 274 274 274 275 277 277 277 276 276 275 272 271 273 274 274 274
223 222 220 219 219 220 223 227 232 235 239 242 244 244 245 244 241 239 238 237 237 236 234 233 234 239 243 244 246 249 249 248 252 258 262 264 262 260 262 268 274 277 277 273 271 270 271 272 275 277 278 279 280 280 280 281 282 283 283 285 287 288 282 275 273 274 273 272 272 270 268 266 267 269 273 274 273 274 274 273 272 273 277 279 280
220 221 222 222 222 223 225 228 233 238 240 241 242 243 244 244 240 237 236 236 236 234 232 230 230 231 235 238 240 241 243 244 247 251 256 260 261 260 261 265 270 276 280 279 277 275 270 268 269 271 272 274 275 277 278 278 278 279 280 280 282 284 283 280 279 279 277 274 272 270 267 266 265 266 267 270 271 272 272 273 272 273 276 278 279
219 220 222 223 223 224 225 229 236 241 242 241 241 241 243 243 240 236 234 233 233 231 229 229 230 230 231 234 236 236 237 239 242 246 248 250 255 261 264 265 266 269 274 277 279 278 274 269 267 267 268 269 270 272 274 274 275 276 277 278 279 280 281 281 282 284 283 281 277 274 272 271 268 265 264 265 267 267 268 271 273 274 274 275 277
220 223 225 226 227 228 231 235 240 243 244 243 241 239 240 241 239 236 234 233 232 230 229 229 231 232 232 235 236 234 234 234 235 240 244 245 249 255 260 261 260 263 270 275 277 276 274 271 270 269 268 267 267 267 269 271 272 273 274 276 277 278 279 280 282 283 283 283 282 281 279 277 273 269 266 263 261 261 264 268 271 274 275 274 274
223 226 228 230 232 234 237 240 243 245 245 243 241 238 237 239 238 235 233 234 234 232 231 232 233 234 235 238 237 233 232 231 229 233 239 241 243 246 250 254 255 258 267 275 277 277 275 273 272 271 270 269 268 267 267 267 268 270 272 274 275 277 278 280 281 282 281 281 282 282 282 281 279 275 271 267 262 260 261 263 265 267 270 272 273
229 230 231 233 235 238 240 242 244 245 244 243 241 238 235 235 235 234 234 235 235 235 235 235 236 236 238 240 238 234 233 232 230 230 233 236 237 240 244 248 251 257 265 271 274 276 276 276 275 272 271 270 270 269 268 267 266 266 268 270 273 275 277 279 281 281 280 279 279 280 281 282 281 279 275 271 267 264 262 261 261 262 264 268 272
233 234 235 236 238 239 240 241 243 244 243 242 241 239 235 233 233 234 234 234 234 235 236 237 237 238 239 240 238 236 237 237 237 237 238 239 241 242 244 248 252 258 264 268 270 272 274 275 275 273 271 271 271 270 269 267 266 265 265 268 270 272 274 277 278 280 280 279 278 278 278 279 280 280 278 275 271 267 264 262 262 261 261 263 267
235 236 237 238 240 241 241 241 241 243 244 243 242 241 238 235 234 234 236 235 234 234 235 236 238 239 239 240 239 239 241 243 244 245 246 246 247 247 248 251 254 259 262 265 268 270 272 274 274 272 270 270 271 270 269 267 266 265 264 266 268 269 270 272 274 276 277 278 278 278 278 278 279 279 280 278 276 271 267 264 263 263 262 261 262
235 236 238 240 242 243 243 243 242 242 242 242 243 242 241 239 238 238 238 238 237 235 234 235 236 238 240 241 241 242 244 247 249 251 251 251 251 250 251 253 256 259 262 264 266 269 270 271 272 271 270 269 269 269 268 267 266 265 264 265 267 267 266 267 269 271 273 275 277 277 278 278 279 280 281 280 279 277 273 269 266 264 264 263 262
236 237 238 240 242 244 245 246 246 245 242 241 242 243 244 243 242 242 241 241 240 238 236 235 237 238 240 242 243 243 245 247 250 252 254 255 254 254 254 254 256 258 260 262 265 267 270 271 270 268 268 267 266 265 265 265 266 265 265 265 265 266 265 265 266 267 269 272 274 276 277 277 279 281 282 282 280 279 277 275 272 268 266 266 265
237 238 239 239 241 243 244 246 247 247 246 243 242 242 243 244 244 244 244 244 243 242 240 240 241 242 242 244 245 246 247 249 250 252 254 255 255 256 256 257 258 259 260 261 263 265 268 270 270 267 265 264 264 264 263 262 263 264 265 265 265 265 265 265 265 265 266 268 271 274 276 277 278 279 280 281 280 279 277 275 274 272 270 269 268
239 239 240 240 241 242 243 244 245 246 247 246 244 243 242 243 244 245 245 245 245 244 244 244 245 246 247 247 247 247 248 249 251 252 254 255 256 257 257 259 260 261 262 263 264 265 267 268 269 269 266 264 262 262 262 262 262 262 263 264 264 265 265 265 265 265 266 267 270 272 275 276 277 278 279 279 279 278 277 274 272 271 271 270 270
240 240 241 242 242 242 243 244 244 245 245 246 246 245 244 244 244 244 245 246 246 246 246 246 247 248 249 249 249 249 249 250 250 251 252 253 255 256 257 258 259 260 262 263 264 266 267 267 268 269 269 268 265 263 261 261 261 262 262 262 263 263 264 264 265 265 266 267 269 271 273 275 276 278 279 279 278 277 276 275 273 271 270 269 268
240 241 241 242 243 243 243 244 244 245 245 245 246 246 246 246 246 245 245 245 246 247 247 247 248 249 250 250 250 250 251 251 252 253 253 253 254 254 255 256 257 259 260 262 263 264 266 267 267 268 269 270 269 268 265 262 261 261 261 262 262 263 263 263 264 265 266 267 268 270 272 273 275 276 278 278 278 277 275 274 274 273 271 269 267
241 241 242 242 243 243 244 244 245 245 245 246 246 246 246 247 247 247 246 246 246 247 247 248 249 250 250 251 251 252 252 252 253 254 255 255 255 256 256 256 257 258 259 261 262 263 264 265 266 267 268 269 270 270 269 267 265 263 262 262 262 263 263 263 263 264 265 266 267 269 270 272 273 274 275 277 277 277 276 274 273 273 272 271 269
242 242 242 243 243 244 244 244 245 245 246 246 246 247 247 247 247 248 248 248 248 248 248 248 249 250 251 251 252 252 253 253 253 253 254 255 256 256 257 257 258 259 260 261 262 263 263 264 265 265 266 267 268 269 269 269 269 267 265 263 263 263 263 263 263 263 264 264 265 267 268 270 271 272 273 274 275 275 275 274 273 272 271 270 269
243 243 243 244 244 244 244 245 245 246 246 246 247 247 248 248 248 248 249 249 249 249 249 249 250 250 251 251 252 252 253 253 254 254 255 255 255 256 256 257 258 259 260 261 262 262 263 263 264 264 265 265 266 267 268 268 269 269 268 267 265 264 264 264 264 264 264 264 264 265 266 267 269 270 271 272 272 272 272 272 271 270 269 268 268
243 244 244 245 245 245 245 246 246 246 246 247 247 248 248 248 249 249 249 250 250 250 250 251 251 251 251 251 251 252 252 253 254 255 256 256 256 257 257 257 258 258 259 260 261 262 262 263 263 263 264 265 265 266 267 267 268 268 268 268 268 267 266 265 264 264 264 264 264 265 265 266 267 268 269 270 270 270 270 270 269 269 268 267 266
244 244 244 245 246 246 246 247 247 247 247 247 248 248 248 249 249 250 250 250 251 251 251 251 251 252 252 252 251 252 252 253 254 255 256 257 258 258 259 259 259 260 260 260 261 261 262 262 262 263 263 264 265 266 266 267 267 267 267 268 268 268 268 267 266 265 265 265 265 265 265 266 266 267 268 268 268 268 268 268 268 268 268 267 266
244 245 245 245 246 246 247 247 248 248 248 248 249 249 249 249 249 250 250 250 251 251 252 252 252 252 253 253 253 253 253 253 253 254 255 256 257 258 259 260 261 261 261 262 262 262 262 262 262 263 263 263 264 264 265 265 266 266 267 267 268 268 268 268 267 267 266 265 265 265 265 265 266 266 267 267 268 268 267 267 267 267 267 267 266
245 246 246 246 246 247 247 247 248 248 249 249 249 250 250 250 250 250 251 251 251 251 252 252 253 253 254 254 254 254 254 254 254 254 254 255 256 256 257 258 259 260 261 262 262 263 263 263 263 263 263 263 264 264 264 264 264 265 266 267 267 267 268 268 267 267 267 266 266 266 266 266 266 266 266 266 266 267 267 267 266 266 266 266 266
246 246 247 247 247 247 248 248 248 249 249 249 250 250 251 251 251 251 252 252 252 252 252 253 253 253 254 254 255 255 255 255 255 255 255 255 255 256 256 257 258 258 259 260 261 261 262 263 264 264 264 264 264 264 264 264 264 264 264 265 266 266 267 267 267 267 267 266 266 266 266 266 266 266 266 265 265 265 266 266 266 266 265 265 265
247 247 248 248 248 248 248 249 249 249 250 250 250 251 251 251 252 252 252 253 253 253 253 253 253 254 254 254 255 255 255 255 256 256 256 256 256 256 256 257 257 257 258 259 259 260 260 261 262 263 263 264 264 264 264 264 264 264 264 264 264 265 265 266 266 267 267 266 266 266 266 265 265 265 266 266 265 265 265 264 264 264 264 264 265
248 248 249 249 249 249 249 250 250 251 251 251 251 252 252 252 253 253 253 254 254 254 254 254 255 255 255 255 255 255 255 256 256 256 256 256 256 257 257 257 257 257 257 258 258 259 259 260 260 261 262 262 263 264 265 265 265 264 264 264 264 264 264 264 265 265 266 266 266 266 266 265 265 265 265 265 265 265 265 264 264 263 263 263 263
249 249 249 250 250 250 250 251 251 251 252 252 252 253 253 253 253 254 254 254 255 255 255 256 256 256 256 256 256 256 256 256 256 256 256 256 256 256 257 257 257 257 257 258 258 258 258 259 259 260 260 261 261 262 263 263 264 264 265 265 264 264 264 264 264 264 265 265 265 265 265 265 265 265 265 264 264 264 264 264 264 264 263 263 262
251 251 251 251 251 251 251 252 252 252 253 253 253 253 254 254 254 255 255 255 256 256 256 256 257 257 257 257 257 257 257 257 257 257 257 257 257 257 257 257 257 257 257 257 257 258 258 258 258 259 259 260 260 260 261 261 262 263 263 264 264 264 264 264 264 264 264 264 264 265 265 265 265 265 265 264 264 264 264 264 264 264 263 263 263
252 252 253 253 253 253 253 253 253 253 253 254 254 254 254 255 255 255 255 256 256 256 257 257 257 257 257 258 258 258 258 258 258 258 258 258 258 257 257 257 257 257 257 257 257 257 257 257 258 258 258 258 259 259 259 260 260 261 261 262 262 263 263 264 264 264 264 264 264 264 265 265 265 265 264 264 264 263 263 263 263 263 263 263 263
253 253 254 254 254 254 255 255 255 255 255 255 255 255 255 256 256 256 256 256 256 256 257 257 257 258 258 258 258 258 258 259 259 259 259 259 259 259 258 258 258 258 257 257 257 257 257 257 257 257 257 257 258 258 258 259 259 259 260 260 261 261 261 261 262 262 263 263 264 264 264 264 265 265 264 264 264 263 263 262 262 262 262 262 262
253 254 254 254 255 255 255 256 256 256 256 256 256 256 257 257 257 257 257 257 257 257 257 257 258 258 258 258 258 258 258 259 259 259 259 259 259 259 259 259 259 259 259 258 258 258 258 258 258 258 258 257 257 257 257 258 258 258 258 259 259 259 260 260 260 261 261 261 262 262 263 263 264 264 264 264 264 263 263 262 262 262 261 261 261
253 253 254 254 255 255 256 256 256 257 257 257 257 258 258 258 258 258 258 258 258 258 258 258 258 258 258 259 259 259 259 259 259 259 259 259 259 259 259 259 259 259 259 259 259 259 259 259 259 259 258 258 258 258 257 257 257 258 258 258 258 258 259 259 259 259 260 260 260 261 261 261 261 262 263 263 264 264 263 263 262 262 261 261 260
253 253 254 255 255 256 256 256 257 257 257 258 258 258 258 258 258 258 258 259 259 259 259 259 259 259 259 259 259 259 260 260 260 260 260 260 260 260 260 260 260 259 259 259 259 259 259 259 259 259 259 259 259 259 258 258 258 257 257 257 257 257 258 258 258 258 259 259 259 259 260 260 260 260 260 261 261 262 262 263 263 262 262 261 261
252 253 254 255 255 256 256 257 257 257 257 257 258 258 258 258 258 259 259 259 259 259 259 259 259 259 260 260 260 260 260 260 261 261 261 261 261 261 261 261 261 261 261 260 260 260 260 259 259 259 259 259 259 259 258 258 258 258 258 258 257 257 257 257 257 257 258 258 258 258 258 259 259 259 260 260 259 260 260 261 261 262 262 262 262
Height
11026 11026 11026 11027 11027 11027 11027 11028 11028 11028 11028 11028 11028 11028 11029 11029 11030 11030 11030 11031 11031 11031 11031 11030 11030 11029 11029 11028 11027 11026 11026 11026 11026 11025 11025 11025 11025 11025 11025 11024 11023 11022 11021 11020 11019 11018 11017 11016 11015 11014 11012 11011 11011 11010 11009 11008 11007 11006 11005 11004 11003 11002 11001 11000 10999 10999 10998 10997 10997 10996 10996 10996 10996 10997 10997 10997 10997 10998 10998 10998 10998 10998 10998 10998 10998
11024 11025 11025 11026 11026 11026 11026 11026 11027 11027 11027 11027 11028 11028 11028 11029 11030 11030 11031 11031 11032 11032 11032 11032 11031 11031 11030 11030 11029 11028 11028 11027 11027 11027 11027 11027 11027 11027 11027 11026 11026 11025 11025 11023 11022 11021 11020 11019 11018 11016 11015 11014 11013 11012 11011 11011 11010 11009 11009 11008 11007 11006 11005 11005 11004 11003 11002 11002 11002 11001 11001 11001 11001 11002 11002 11002 11002 11002 11002 11003 11002 11003 11003 11003 11003
11022 11023 11024 11024 11025 11025 11025 11025 11025 11026 11026 11026 11026 11027 11028 11028 11029 11029 11030 11031 11032 11032 11033 11033 11032 11032 11032 11032 11031 11031 11030 11029 11029 11029 11028 11029 11029 11028 11028 11028 11028 11028 11027 11026 11025 11024 11023 11022 11021 11019 11018 11017 11016 11015 11014 11014 11013 11012 11012 11011 11011 11010 11010 11009 11008 11008 11007 11007 11007 11007 11006 11007 11007 11007 11007 11007 11007 11007 11007 11007 11007 11007 11007 11008 11008
11019 11020 11021 11022 11023 11024 11024 11025 11025 11025 11025 11025 11025 11026 11027 11027 11028 11028 11029 11030 11031 11032 11033 11033 11033 11033 11033 11033 11032 11032 11031 11031 11030 11030 11030 11030 11030 11030 11029 11029 11029 11029 11028 11028 11027 11026 11025 11024 11023 11022 11021 11020 11019 11018 11018 11017 11016 11015 11015 11015 11014 11014 11014 11014 11013 11013 11012 11012 11012 11012 11011 11011 11011 11012 11012 11012 11012 11012 11012 11012 11012 11012 11012 11012 11012
11016 11017 11017 11019 11020 11022 11023 11024 11025 11025 11025 11026 11026 11026 11026 11027 11027 11028 11028 11029 11030 11031 11032 11033 11034 11034 11034 11033 11033 11033 11032 11032 11031 11031 11031 11031 11031 11031 11031 11030 11030 11030 11029 11029 11029 11028 11028 11027 11026 11025 11024 11023 11022 11022 11021 11020 11020 11019 11019 11018 11018 11018 11018 11018 11018 11017 11017 11017 11017 11016 11016 11016 11016 11016 11016 11016 11016 11016 11016 11016 11016 11016 11016 11016 11016
11013 11013 11014 11015 11016 11018 11020 11022 11023 11023 11024 11025 11026 11026 11027 11027 11027 11027 11027 11028 11029 11030 11031 11032 11033 11033 11034 11034 11034 11033 11033 11032 11032 11031 11031 11031 11031 11031 11032 11031 11031 11031 11030 11030 11030 11030 11029 11029 11028 11028 11027 11026 11025 11025 11024 11024 11023 11023 11023 11022 11022 11022 11022 11022 11022 11021 11021 11021 11021 11021 11020 11020 11020 11020 11020 11020 11020 11020 11020 11020 11020 11020 11020 11019 11019
11010 11011 11011 11012 11013 11015 11016 11019 11020 11021 11022 11023 11024 11026 11026 11027 11027 11027 11027 11027 11027 11028 11029 11030 11031 11032 11033 11033 11034 11034 11033 11033 11032 11031 11031 11031 11031 11031 11031 11032 11032 11032 11032 11031 11031 11031 11031 11031 11030 11030 11029 11029 11028 11028 11027 11027 11027 11026 11026 11026 11025 11025 11025 11025 11025 11024 11025 11025 11025 11024 11024 11024 11024 11024 11024 11024 11024 11024 11024 11024 11024 11023 11023 11023 11022
11007 11008 11008 11010 11011 11012 11013 11015 11016 11018 11020 11021 11023 11024 11025 11025 11025 11026 11026 11026 11026 11027 11027 11028 11029 11030 11031 11032 11033 11033 11033 11033 11032 11032 11031 11030 11030 11030 11030 11031 11031 11032 11032 11032 11032 11032 11032 11032 11032 11031 11031 11031 11031 11030 11030 11029 11029 11029 11029 11028 11028 11028 11027 11027 11027 11027 11027 11027 11027 11027 11027 11027 11027 11027 11027 11027 11027 11027 11027 11027 11026 11026 11026 11025 11025
11004 11004 11005 11007 11009 11010 11011 11012 11014 11015 11017 11020 11021 11022 11022 11023 11023 11023 11024 11025 11025 11025 11026 11026 11027 11028 11029 11030 11031 11032 11032 11033 11032 11032 11031 11031 11030 11030 11030 11030 11030 11031 11032 11032 11032 11032 11032 11032 11032 11032 11032 11032 11032 11032 11031 11031 11031 11030 11030 11030 11030 11030 11029 11029 11029 11028 11028 11028 11028 11028 11028 11028 11028 11028 11028 11029 11029 11029 11028 11028 11028 11028 11027 11027 11026
11000 11001 11002 11004 11006 11008 11009 11010 11011 11013 11015 11017 11018 11019 11019 11020 11021 11021 11022 11023 11023 11023 11024 11025 11025 11026 11028 11028 11029 11030 11031 11031 11031 11031 11031 11031 11031 11030 11030 11029 11030 11030 11031 11031 11032 11032 11032 11032 11032 11032 11032 11032 11032 11032 11032 11032 11032 11032 11031 11031 11031 11031 11030 11030 11030 11030 11030 11029 11029 11029 11029 11029 11029 11029 11029 11029 11029 11029 11029 11029 11029 11029 11028 11028 11027
10996 10997 10999 11001 11003 11004 11006 11007 11008 11010 11012 11013 11015 11016 11016 11017 11018 11019 11020 11021 11021 11022 11022 11024 11024 11025 11026 11027 11028 11028 11029 11029 11029 11030 11030 11030 11030 11030 11030 11029 11029 11029 11030 11030 11030 11031 11031 11032 11032 11032 11032 11032 11032 11032 11032 11032 11032 11032 11032 11032 11031 11031 11031 11030 11030 11030 11030 11030 11030 11030 11030 11030 11030 11030 11030 11030 11030 11030 11030 11029 11029 11029 11029 11029 11028
10992 10993 10995 10997 10998 11000 11002 11003 11004 11006 11007 11009 11010 11012 11013 11014 11015 11016 11017 11018 11019 11020 11021 11022 11023 11024 11025 11026 11027 11027 11027 11027 11027 11028 11028 11029 11030 11030 11029 11029 11029 11029 11029 11029 11029 11030 11030 11031 11031 11031 11031 11031 11031 11031 11031 11031 11031 11032 11032 11032 11032 11031 11031 11030 11030 11030 11030 11030 11030 11030 11030 11030 11030 11030 11030 11030 11030 11030 11029 11029 11029 11029 11029 11029 11028
10988 10989 10991 10992 10994 10996 10998 10999 11000 11000 11002 11004 11006 11008 11009 11010 11011 11012 11013 11014 11015 11016 11018 11019 11021 11022 11023 11024 11025 11026 11026 11026 11026 11026 11027 11028 11028 11028 11028 11028 11027 11027 11028 11028 11028 11029 11029 11029 11029 11030 11030 11030 11030 11031 11031 11031 11031 11031 11031 11031 11031 11031 11031 11030 11030 11030 11030 11029 11029 11029 11029 11029 11029 11029 11029 11029 11029 11029 11029 11028 11028 11028 11028 11028 11028
10983 10985 10986 10987 10988 10991 10993 10995 10995 10996 10998 11000 11002 11004 11005 11006 11007 11008 11009 11010 11011 11012 11014 11015 11017 11018 11020 11021 11022 11023 11024 11025 11025 11025 11025 11026 11026 11026 11026 11026 11026 11026 11026 11026 11027 11027 11028 11028 11028 11028 11028 11028 11029 11029 11030 11030 11030 11030 11030 11030 11030 11030 11029 11030 11029 11029 11029 11029 11028 11028 11028 11028 11028 11028 11028 11028 11028 11028 11027 11027 11027 11027 11027 11027 11027
10978 10979 10980 10981 10982 10985 10988 10990 10990 10992 10994 10996 10997 10998 11000 11001 11002 11004 11005 11006 11007 11009 11010 11012 11013 11014 11015 11016 11017 11019 11020 11022 11022 11023 11023 11023 11024 11024 11024 11024 11024 11024 11024 11024 11025 11025 11026 11026 11026 11026 11026 11026 11027 11027 11027 11028 11028 11028 11028 11028 11028 11027 11027 11027 11027 11028 11028 11027 11027 11027 11027 11027 11027 11026 11026 11026 11026 11026 11026 11025 11026 11026 11026 11025 11025
10972 10972 10974 10975 10977 10980 10983 10984 10985 10987 10989 10990 10990 10992 10994 10995 10997 10999 11000 11002 11003 11005 11006 11008 11008 11009 11010 11012 11013 11015 11016 11017 11018 11019 11020 11020 11020 11020 11020 11021 11021 11021 11021 11021 11022 11022 11023 11024 11025 11025 11025 11025 11025 11025 11025 11025 11025 11026 11026 11026 11025 11025 11025 11025 11025 11025 11025 11026 11026 11025 11025 11025 11025 11024 11024 11024 11023 11023 11023 11023 11023 11024 11024 11024 11023
10965 10967 10968 10969 10971 10974 10976 10977 10979 10981 10982 10982 10983 10986 10988 10990 10992 10995 10996 10997 10999 11001 11002 11003 11004 11004 11005 11008 11010 11011 11012 11013 11014 11015 11016 11016 11016 11016 11016 11017 11017 11018 11018 11018 11019 11019 11020 11021 11022 11022 11023 11023 11023 11023 11023 11022 11022 11023 11023 11023 11023 11024 11024 11024 11023 11022 11023 11023 11023 11024 11023 11023 11022 11022 11022 11021 11021 11020 11021 11020 11020 11020 11021 11021 11021
10959 10960 10960 10962 10965 10967 10969 10970 10971 10973 10974 10975 10977 10980 10982 10985 10988 10990 10991 10992 10994 10996 10998 10999 10999 10999 11000 11003 11006 11006 11007 11008 11009 11010 11011 11012 11012 11012 11012 11013 11013 11014 11015 11016 11016 11016 11016 11017 11019 11020 11021 11021 11021 11021 11021 11020 11020 11020 11020 11021 11021 11022 11023 11022 11021 11020 11021 11021 11021 11021 11021 11020 11020 11020 11020 11019 11019 11018 11018 11018 11017 11017 11017 11018 11018
10952 10952 10952 10954 10958 10960 10961 10963 10964 10966 10967 10969 10971 10974 10976 10979 10981 10984 10986 10988 10989 10992 10993 10995 10995 10995 10997 10999 11001 11001 11003 11004 11004 11006 11006 11007 11008 11008 11008 11008 11009 11010 11011 11012 11013 11013 11014 11015 11016 11017 11018 11018 11018 11018 11018 11017 11017 11017 11017 11018 11018 11019 11021 11020 11018 11018 11018 11018 11018 11019 11018 11018 11017 11017 11017 11017 11017 11016 11015 11015 11015 11014 11014 11015 11015
10944 10945 10946 10949 10951 10953 10954 10956 10958 10960 10961 10963 10966 10968 10970 10973 10975 10977 10980 10982 10983 10985 10987 10989 10990 10991 10992 10994 10995 10997 10998 10999 10999 11000 11001 11002 11003 11003 11004 11004 11004 11005 11006 11007 11009 11010 11011 11012 11013 11013 11014 11015 11015 11016 11016 11015 11014 11013 11013 11014 11015 11016 11017 11016 11015 11015 11015 11015 11015 11015 11015 11014 11014 11014 11014 11014 11014 11013 11012 11012 11012 11012 11011 11011 11011
10936 10938 10940 10942 10944 10946 10947 10949 10951 10953 10956 10958 10961 10963 10965 10967 10969 10971 10973 10975 10976 10979 10981 10982 10982 10983 10985 10987 10989 10992 10992 10993 10994 10994 10995 10996 10997 10998 10998 10999 10999 10999 11000 11002 11004 11005 11007 11008 11009 11010 11010 11010 11011 11012 11013 11013 11011 11010 11009 11010 11011 11012 11013 11013 11012 11012 11012 11012 11012 11011 11011 11011 11011 11011 11011 11011 11011 11010 11009 11008 11008 11009 11009 11008 11008
10927 10929 10932 10935 10937 10939 10941 10942 10944 10947 10949 10952 10955 10957 10959 10961 10963 10965 10966 10968 10969 10971 10974 10975 10976 10977 10979 10981 10984 10986 10986 10987 10988 10988 10989 10990 10991 10992 10993 10993 10993 10993 10995 10996 10998 10999 11001 11003 11005 11006 11006 11006 11007 11007 11008 11009 11009 11007 11006 11006 11006 11007 11008 11009 11009 11009 11009 11008 11008 11007 11007 11008 11009 11009 11009 11008 11008 11008 11006 11005 11005 11006 11006 11005 11005
10918 10921 10924 10927 10929 10932 10933 10935 10937 10940 10943 10945 10948 10950 10952 10954 10956 10958 10959 10961 10962 10964 10966 10967 10969 10971 10973 10975 10977 10979 10979 10980 10981 10981 10982 10984 10985 10985 10986 10986 10986 10986 10988 10989 10992 10994 10996 10997 10999 11000 11001 11001 11002 11002 11003 11004 11005 11004 11003 11003 11002 11003 11003 11004 11005 11005 11005 11005 11004 11003 11003 11004 11005 11005 11005 11006 11005 11004 11003 11003 11003 11003 11002 11002 11002
10909 10912 10914 10918 10921 10923 10925 10927 10929 10933 10936 10938 10940 10943 10945 10947 10949 10951 10952 10953 10955 10957 10958 10960 10962 10964 10966 10968 10970 10972 10972 10973 10973 10973 10974 10975 10977 10978 10978 10979 10979 10979 10981 10982 10985 10987 10990 10992 10993 10995 10996 10996 10997 10997 10998 10999 11000 11000 11000 10999 10998 10998 10998 10999 11000 11001 11001 11001 11000 11000 10999 10999 11000 11001 11001 11001 11001 11001 11000 11000 11000 11000 10999 10998 10998
10900 10902 10905 10908 10911 10914 10917 10919 10921 10924 10927 10930 10932 10935 10937 10939 10941 10943 10944 10945 10947 10949 10951 10952 10954 10956 10958 10960 10962 10964 10965 10965 10965 10965 10965 10966 10968 10970 10971 10972 10972 10973 10974 10976 10978 10981 10983 10985 10987 10989 10990 10991 10991 10992 10993 10994 10995 10995 10995 10995 10995 10994 10994 10994 10994 10995 10996 10996 10996 10996 10995 10995 10996 10996 10996 10997 10997 10996 10996 10996 10996 10996 10996 10995 10994
10888 10891 10894 10897 10900 10903 10907 10910 10912 10914 10917 10921 10923 10925 10928 10930 10932 10934 10936 10937 10939 10940 10942 10944 10946 10948 10950 10952 10954 10955 10956 10957 10957 10958 10958 10959 10960 10962 10963 10964 10965 10966 10968 10970 10972 10974 10975 10978 10980 10982 10983 10984 10985 10986 10987 10988 10989 10989 10990 10990 10990 10990 10990 10989 10989 10989 10990 10990 10991 10991 10990 10990 10991 10991 10992 10992 10992 10991 10992 10993 10992 10991 10991 10992 10990
10876 10878 10881 10884 10887 10891 10895 10899 10903 10905 10907 10910 10913 10916 10918 10921 10923 10925 10926 10927 10929 10931 10933 10935 10937 10939 10941 10943 10945 10946 10947 10947 10948 10949 10950 10951 10952 10954 10955 10956 10957 10959 10960 10962 10964 10966 10969 10970 10972 10974 10975 10977 10978 10979 10980 10981 10982 10983 10984 10984 10985 10985 10985 10985 10985 10984 10984 10984 10984 10984 10984 10984 10985 10985 10986 10987 10987 10986 10987 10988 10988 10986 10986 10987 10986
10864 10867 10870 10873 10875 10879 10882 10886 10891 10895 10897 10899 10901 10905 10908 10910 10913 10915 10916 10917 10919 10921 10922 10924 10926 10928 10930 10932 10933 10935 10937 10937 10937 10938 10940 10941 10943 10945 10946 10948 10949 10951 10952 10954 10955 10957 10960 10963 10965 10966 10967 10969 10970 10972 10973 10973 10974 10975 10976 10977 10978 10978 10979 10979 10980 10979 10979 10979 10979 10978 10978 10978 10978 10978 10979 10980 10980 10981 10982 10983 10983 10982 10981 10982 10982
10851 10855 10858 10861 10864 10867 10870 10873 10877 10881 10886 10888 10891 10893 10896 10898 10901 10903 10905 10906 10908 10910 10912 10913 10915 10916 10918 10919 10921 10923 10925 10927 10928 10928 10929 10931 10932 10934 10936 10938 10939 10941 10943 10945 10946 10947 10950 10953 10956 10958 10959 10960 10962 10964 10965 10965 10966 10966 10967 10968 10969 10970 10971 10972 10973 10973 10973 10974 10973 10973 10972 10972 10972 10972 10973 10973 10973 10974 10976 10977 10977 10977 10976 10976 10976
10839 10842 10846 10849 10852 10854 10857 10860 10863 10867 10871 10876 10879 10882 10884 10886 10888 10891 10893 10895 10897 10899 10902 10903 10905 10906 10907 10909 10910 10912 10914 10917 10918 10919 10920 10920 10922 10924 10925 10927 10929 10931 10933 10935 10937 10938 10939 10941 10945 10948 10951 10952 10953 10954 10955 10956 10957 10958 10958 10959 10960 10961 10963 10964 10965 10965 10966 10966 10966 10966 10966 10966 10966 10967 10967 10967 10967 10967 10968 10970 10970 10971 10971 10970 10969
10825 10829 10832 10835 10838 10841 10844 10848 10851 10854 10857 10861 10865 10869 10871 10873 10875 10877 10880 10882 10884 10887 10889 10892 10894 10895 10896 10898 10900 10901 10903 10905 10908 10909 10910 10910 10911 10913 10915 10916 10918 10920 10922 10924 10926 10928 10929 10930 10932 10936 10939 10942 10943 10945 10946 10947 10948 10949 10950 10950 10951 10952 10953 10954 10956 10957 10957 10957 10958 10958 10958 10959 10959 10960 10960 10961 10961 10961 10961 10962 10963 10964 10964 10964 10963
10811 10814 10818 10820 10823 10827 10831 10834 10837 10840 10843 10846 10850 10854 10857 10860 10862 10864 10866 10868 10871 10873 10875 10879 10881 10882 10883 10885 10887 10889 10891 10892 10895 10897 10899 10900 10901 10903 10904 10906 10908 10910 10912 10913 10915 10917 10918 10919 10921 10923 10925 10929 10932 10934 10936 10937 10938 10939 10940 10940 10941 10942 10944 10945 10946 10947 10948 10948 10949 10949 10949 10950 10951 10951 10952 10953 10954 10954 10954 10954 10955 10956 10957 10957 10956
10796 10799 10803 10805 10808 10812 10816 10819 10822 10825 10828 10831 10834 10837 10841 10844 10847 10850 10852 10855 10857 10858 10861 10864 10867 10869 10870 10872 10874 10876 10878 10879 10880 10883 10885 10888 10890 10892 10893 10895 10897 10899 10900 10902 10904 10905 10906 10908 10909 10911 10913 10915 10918 10920 10923 10926 10927 10928 10929 10930 10930 10931 10933 10935 10936 10937 10938 10938 10939 10939 10940 10941 10941 10942 10943 10944 10945 10946 10946 10946 10947 10948 10949 10949 10948
10781 10784 10787 10790 10794 10797 10800 10803 10806 10809 10813 10816 10819 10822 10825 10828 10831 10834 10837 10840 10842 10844 10846 10849 10852 10854 10856 10858 10860 10861 10863 10865 10867 10868 10870 10873 10876 10879 10881 10883 10885 10886 10888 10890 10891 10893 10894 10896 10897 10899 10900 10902 10904 10906 10909 10912 10915 10917 10918 10919 10920 10920 10921 10923 10925 10927 10927 10928 10929 10929 10930 10931 10932 10933 10933 10934 10935 10936 10937 10937 10938 10939 10940 10940 10940
10765 10769 10772 10775 10778 10781 10785 10788 10791 10794 10798 10801 10804 10806 10809 10812 10815 10818 10821 10824 10826 10829 10831 10834 10837 10839 10841 10843 10845 10846 10848 10850 10852 10854 10855 10858 10860 10864 10867 10869 10871 10872 10874 10876 10878 10880 10881 10883 10885 10887 10888 10890 10892 10893 10895 10897 10900 10903 10905 10907 10908 10909 10910 10911 10913 10915 10916 10917 10918 10919 10919 10920 10921 10922 10923 10924 10925 10926 10927 10928 10929 10930 10930 10930 10931
10749 10752 10756 10759 10762 10765 10769 10772 10776 10779 10783 10786 10788 10791 10793 10796 10799 10802 10805 10808 10810 10813 10815 10818 10820 10823 10826 10828 10830 10831 10833 10834 10836 10838 10840 10842 10844 10847 10851 10853 10855 10857 10859 10861 10863 10865 10867 10869 10871 10872 10874 10877 10879 10880 10882 10883 10885 10888 10890 10893 10895 10897 10898 10899 10900 10902 10904 10905 10906 10907 10908 10909 10910 10911 10913 10914 10914 10915 10916 10918 10919 10920 10920 10921 10922
10733 10736 10739 10743 10746 10749 10753 10757 10761 10764 10767 10770 10773 10775 10778 10780 10783 10786 10789 10792 10794 10797 10799 10801 10803 10806 10809 10812 10814 10816 10818 10819 10821 10822 10824 10826 10828 10831 10833 10836 10839 10842 10844 10846 10848 10850 10851 10853 10856 10858 10860 10862 10864 10866 10868 10870 10871 10873 10875 10878 10880 10882 10885 10886 10888 10889 10890 10892 10893 10894 10896 10897 10898 10899 10901 10903 10903 10904 10905 10906 10907 10909 10910 10911 10912
10716 10719 10723 10727 10731 10734 10737 10741 10745 10748 10752 10754 10756 10758 10761 10764 10767 10770 10773 10775 10778 10780 10782 10783 10785 10787 10790 10794 10798 10801 10803 10805 10806 10808 10809 10811 10812 10814 10816 10818 10821 10824 10826 10829 10831 10834 10836 10838 10840 10843 10845 10847 10849 10851 10853 10855 10857 10859 10861 10863 10865 10867 10869 10872 10874 10875 10877 10878 10879 10880 10882 10884 10885 10887 10889 10891 10892 10893 10894 10895 10895 10896 10898 10899 10901
10699 10703 10708 10712 10716 10719 10722 10724 10727 10731 10734 10736 10738 10742 10745 10748 10750 10753 10756 10758 10760 10762 10764 10765 10767 10770 10773 10776 10780 10784 10787 10789 10791 10793 10794 10796 10797 10799 10801 10802 10804 10805 10807 10810 10813 10815 10818 10821 10824 10827 10829 10832 10834 10837 10839 10841 10842 10844 10846 10848 10850 10852 10854 10856 10858 10860 10862 10863 10865 10866 10867 10869 10871 10873 10875 10877 10879 10880 10882 10883 10883 10884 10885 10887 10888
10683 10687 10692 10697 10700 10703 10705 10708 10710 10713 10715 10718 10721 10724 10728 10730 10733 10735 10738 10740 10742 10743 10745 10747 10750 10752 10755 10758 10761 10765 10768 10771 10774 10777 10779 10780 10782 10784 10786 10787 10788 10789 10791 10792 10794 10797 10799 10802 10805 10809 10812 10815 10818 10821 10824 10827 10829 10830 10831 10832 10834 10836 10838 10840 10842 10844 10846 10848 10850 10851 10852 10854 10856 10858 10861 10863 10865 10867 10869 10870 10870 10871 10873 10874 10874
10667 10671 10675 10679 10682 10685 10687 10690 10692 10695 10697 10700 10703 10707 10710 10712 10715 10717 10720 10721 10723 10725 10727 10730 10733 10735 10737 10739 10742 10745 10748 10752 10755 10758 10761 10763 10765 10767 10769 10771 10773 10774 10775 10776 10778 10780 10782 10784 10787 10789 10792 10796 10799 10803 10807 10811 10814 10816 10817 10818 10820 10821 10822 10824 10826 10828 10830 10832 10834 10836 10837 10839 10841 10843 10846 10847 10850 10853 10855 10856 10857 10858 10859 10860 10861
10651 10655 10658 10661 10664 10667 10669 10672 10675 10678 10680 10683 10686 10689 10692 10694 10697 10699 10700 10702 10704 10706 10709 10712 10714 10717 10718 10720 10722 10725 10729 10732 10735 10738 10741 10744 10747 10749 10751 10753 10756 10757 10759 10760 10762 10764 10766 10768 10770 10772 10774 10777 10780 10784 10788 10792 10796 10799 10802 10803 10805 10806 10807 10809 10810 10812 10814 10816 10818 10819 10821 10824 10826 10828 10830 10831 10833 10837 10839 10841 10843 10844 10845 10847 10847
10635 10637 10640 10643 10646 10650 10653 10655 10658 10660 10663 10666 10668 10671 10674 10676 10678 10680 10681 10683 10685 10687 10689 10692 10695 10697 10699 10700 10702 10705 10708 10710 10713 10716 10720 10724 10728 10730 10732 10734 10736 10739 10741 10743 10745 10747 10749 10751 10753 10755 10758 10761 10763 10766 10769 10773 10776 10779 10783 10786 10788 10790 10792 10793 10795 10796 10798 10800 10801 10803 10805 10808 10810 10812 10814 10816 10818 10821 10824 10826 10827 10829 10831 10833 10834
10616 10619 10622 10625 10628 10632 10635 10638 10640 10643 10645 10648 10650 10653 10656 10658 10659 10661 10663 10664 10666 10668 10670 10672 10675 10676 10678 10680 10681 10683 10685 10688 10691 10695 10699 10703 10707 10710 10712 10714 10716 10719 10721 10724 10726 10729 10731 10733 10736 10738 10741 10743 10746 10749 10752 10754 10757 10759 10763 10766 10769 10771 10774 10776 10778 10780 10781 10783 10785 10786 10789 10791 10793 10795 10798 10800 10802 10806 10808 10810 10811 10813 10816 10818 10819
10597 10600 10603 10607 10610 10613 10617 10620 10622 10624 10626 10629 10631 10634 10636 10639 10640 10642 10644 10645 10647 10649 10650 10652 10654 10655 10656 10658 10659 10660 10663 10666 10669 10673 10676 10680 10684 10688 10691 10693 10696 10698 10701 10703 10706 10709 10712 10714 10717 10720 10722 10725 10727 10730 10733 10736 10739 10741 10744 10746 10749 10751 10754 10756 10759 10761 10763 10765 10767 10770 10772 10774 10776 10778 10780 10783 10786 10789 10793 10794 10796 10798 10800 10802 10804
10578 10581 10585 10588 10591 10595 10598 10601 10603 10606 10608 10610 10612 10614 10617 10619 10621 10623 10625 10626 10627 10629 10630 10631 10632 10634 10635 10636 10638 10639 10641 10643 10647 10650 10653 10656 10660 10664 10667 10671 10674 10676 10679 10682 10685 10688 10691 10693 10696 10699 10702 10706 10709 10711 10714 10717 10720 10722 10725 10728 10730 10733 10735 10737 10739 10741 10743 10745 10749 10752 10754 10755 10757 10759 10762 10765 10769 10772 10775 10778 10780 10782 10784 10786 10788
10560 10563 10566 10569 10573 10576 10579 10581 10584 10586 10589 10591 10593 10595 10597 10599 10600 10602 10604 10605 10607 10608 10609 10610 10611 10612 10613 10615 10616 10618 10620 10622 10624 10627 10630 10633 10636 10640 10643 10647 10651 10654 10657 10659 10662 10665 10668 10671 10674 10678 10682 10686 10689 10692 10694 10697 10700 10702 10705 10707 10710 10713 10716 10718 10720 10722 10724 10727 10730 10733 10735 10737 10739 10741 10743 10746 10750 10754 10757 10760 10763 10765 10767 10769 10771
10543 10546 10548 10552 10555 10558 10560 10563 10565 10567 10569 10572 10574 10576 10578 10579 10580 10581 10582 10584 10585 10587 10588 10590 10590 10591 10592 10593 10594 10596 10598 10600 10602 10605 10607 10610 10613 10617 10621 10624 10628 10631 10634 10637 10640 10643 10646 10650 10653 10657 10660 10664 10668 10671 10673 10676 10679 10681 10684 10687 10689 10692 10694 10697 10700 10703 10706 10708 10711 10714 10716 10718 10720 10722 10724 10727 10730 10734 10738 10742 10745 10747 10749 10752 10755
10527 10530 10532 10535 10538 10540 10543 10545 10547 10548 10550 10552 10554 10556 10558 10559 10560 10561 10561 10563 10564 10566 10567 10569 10570 10571 10571 10572 10572 10574 10576 10578 10581 10583 10586 10589 10592 10595 10598 10602 10605 10608 10611 10615 10618 10621 10625 10628 10631 10635 10638 10641 10645 10648 10652 10655 10657 10660 10662 10665 10668 10671 10673 10676 10679 10682 10685 10688 10691 10694 10697 10700 10703 10705 10707 10709 10711 10714 10718 10721 10725 10728 10731 10734 10737
10512 10515 10517 10519 10522 10524 10526 10528 10529 10530 10531 10533 10534 10536 10537 10538 10539 10540 10542 10543 10544 10545 10546 10547 10549 10550 10551 10551 10552 10553 10555 10557 10560 10562 10564 10567 10570 10573 10576 10579 10582 10586 10589 10593 10596 10600 10603 10606 10609 10612 10615 10618 10622 10625 10628 10632 10635 10638 10640 10642 10645 10649 10652 10655 10658 10660 10663 10667 10670 10672 10675 10679 10683 10686 10689 10692 10694 10696 10699 10702 10704 10708 10711 10715 10719
10499 10501 10504 10506 10507 10509 10510 10511 10511 10512 10513 10514 10515 10516 10517 10518 10519 10520 10521 10522 10523 10524 10525 10527 10528 10529 10530 10531 10532 10534 10536 10538 10540 10542 10544 10546 10549 10552 10555 10558 10561 10564 10567 10570 10574 10577 10581 10584 10586 10588 10591 10594 10597 10601 10605 10608 10612 10614 10617 10619 10622 10626 10629 10632 10635 10637 10640 10644 10648 10651 10654 10658 10662 10666 10669 10672 10675 10678 10682 10684 10686 10689 10692 10695 10699